Lid_Strength_Index
13 15 16 15 14 15 16 17 17 15 13 15 15 15 13 13 13 14 15 14 14 14 13 13 13 13 13 13 13 12 12 11 9 9 7 6 6 5 5 3 2 3 3 5
15 16 14 13 14 15 15 17 17 15 14 15 15 15 15 14 14 14 14 14 14 14 14 13 13 14 14 14 13 13 12 12 11 10 10 9 9 9 7 6 5 4 3 4
16 14 12 12 14 14 15 16 16 15 15 15 17 17 16 14 14 13 13 13 13 14 14 14 13 14 14 14 14 13 13 13 13 12 11 11 10 11 11 10 9 7 6 6
14 12 13 14 14 14 16 14 14 15 17 19 17 21 17 15 15 15 14 15 15 14 14 13 14 14 14 14 14 14 13 13 13 12 12 13 13 14 13 12 12 11 10 10
14 14 15 15 14 13 15 14 15 16 17 19 18 20 18 15 16 16 15 14 14 13 13 14 14 13 13 14 15 14 13 13 13 13 13 13 14 14 14 13 13 13 12 12
14 13 13 13 13 13 14 15 15 17 18 21 18 18 18 16 15 15 14 13 13 13 13 13 13 13 14 14 14 14 14 13 13 14 14 14 14 14 14 15 15 14 13 13
15 14 13 13 14 14 15 16 19 21 22 21 16 18 16 14 13 13 14 14 13 13 14 14 13 14 14 15 15 14 14 14 14 14 14 14 14 15 15 15 16 16 15 15
16 17 14 13 13 14 16 16 20 25 22 20 16 18 15 13 13 13 13 14 13 13 13 13 14 14 14 14 15 16 15 15 14 15 15 15 15 15 16 16 16 15 15 15
16 16 14 14 14 13 14 16 13 16 17 18 17 16 13 13 13 13 13 13 13 13 12 13 13 14 13 13 14 14 15 15 15 15 15 14 14 16 17 16 16 16 15 15
14 18 13 13 12 13 12 11 16 16 24 22 19 18 17 14 14 13 14 13 13 13 12 12 12 13 13 13 13 14 14 14 15 15 14 14 14 14 15 15 16 16 15 15
12 14 15 13 14 13 14 14 14 14 15 21 23 18 13 12 12 12 13 12 13 12 12 11 12 13 13 13 13 13 13 14 14 14 15 14 14 15 15 15 15 15 15 15
11 14 19 15 12 11 12 13 13 17 18 16 17 17 11 10 11 11 12 11 12 12 13 13 12 13 14 14 14 14 13 14 14 15 15 15 14 14 15 14 14 14 14 13
10 16 22 18 15 13 13 13 12 12 14 19 19 17 11 11 11 11 12 12 11 13 13 13 13 13 12 13 13 13 13 13 12 13 13 14 15 15 14 13 13 13 13 15
9 14 17 19 17 14 16 14 13 14 18 18 16 15 13 11 12 11 11 10 12 13 13 13 13 13 13 13 13 13 13 13 13 13 13 14 14 14 14 14 14 14 14 14
12 18 15 14 14 14 15 14 14 15 14 17 15 15 13 12 13 12 12 11 12 13 13 14 14 13 13 13 13 13 12 12 13 13 13 14 13 13 14 14 14 14 14 14
12 19 17 21 15 14 16 15 15 14 14 14 14 14 10 12 13 14 13 12 12 12 13 13 13 13 13 13 13 12 13 12 12 13 13 12 12 12 12 12 12 12 13 13
14 17 20 21 17 19 22 19 16 15 15 15 17 14 16 14 13 13 14 14 14 13 13 13 13 13 12 12 12 12 12 12 12 12 12 12 12 13 13 13 14 14 14 14
15 17 20 24 23 28 18 17 16 16 15 15 17 19 16 15 14 14 14 14 13 13 12 12 12 12 12 12 11 11 11 12 12 13 14 14 14 15 14 15 16 16 16 16
14 15 23 24 26 22 17 16 17 17 18 17 17 17 14 14 15 16 13 13 13 12 11 11 11 11 11 12 12 12 12 12 13 14 14 15 16 17 17 19 18 18 18 19
15 14 18 29 28 27 19 17 15 15 21 19 19 18 16 15 20 16 13 11 11 11 11 10 10 10 11 12 12 13 13 14 15 15 15 16 17 21 20 19 20 20 20 20
24 23 17 19 24 23 17 15 14 22 19 19 17 15 15 16 14 13 12 11 10 9 9 10 10 11 12 13 14 15 15 16 16 17 17 17 18 20 21 21 21 21 22 21
20 22 24 24 25 25 15 15 17 14 13 13 13 12 13 12 12 11 11 10 10 10 10 11 12 13 13 14 15 16 17 16 17 18 19 20 22 22 20 22 22 22 23 23
20 18 21 19 20 14 14 12 11 11 13 11 12 11 11 11 11 10 10 9 9 10 11 13 14 14 15 15 16 18 17 18 18 24 25 25 23 21 21 23 22 22 22 23
16 15 18 18 15 14 12 10 11 10 10 9 9 9 10 10 9 9 9 10 10 12 13 15 16 16 16 16 17 19 19 19 27 29 25 23 22 21 22 21 21 22 23 23
15 16 17 16 13 13 12 11 10 9 9 8 9 9 9 9 9 9 10 11 11 13 15 16 17 16 17 17 18 21 21 24 26 25 22 22 21 22 21 20 21 21 19 19
13 13 15 15 10 11 10 9 9 9 9 8 9 9 9 9 9 10 12 12 14 15 16 17 17 18 18 19 20 20 23 27 27 24 22 21 21 20 21 21 22 17 16 15